| time (UTC) | temp F | wind direction | speed knots | gust knots | rain 1hr in | rain 24hr in | rain mn in | humidity % | barometer mb |
| 20260905205033 | 54 | 18 | 3.5 | 5.2 | 0.00 | 0.41 | 0.41 | 87 | 1009.9 |
| 20260905204552 | 53 | 352 | 0.9 | 5.2 | 0.00 | 0.41 | 0.41 | 91 | 1009.9 |
| 20260905204031 | 52 | 345 | 1.7 | 5.2 | 0.00 | 0.41 | 0.41 | 93 | 1009.8 |
| 20260905203532 | 50 | 5 | 1.7 | 3.5 | 0.00 | 0.41 | 0.41 | 93 | 1009.6 |
| 20260905203047 | 50 | 29 | 0.9 | 3.5 | 0.00 | 0.41 | 0.41 | 93 | 1009.5 |
| 20260905202532 | 49 | 360 | 0.0 | 4.3 | 0.00 | 0.41 | 0.41 | 93 | 1009.5 |
| 20260905202032 | 49 | 0 | 0.0 | 4.3 | 0.00 | 0.41 | 0.41 | 92 | 1009.4 |
| 20260905201556 | 50 | 304 | 0.9 | 4.3 | 0.00 | 0.41 | 0.41 | 93 | 1009.4 |
| 20260905201031 | 50 | 0 | 0.0 | 4.3 | 0.00 | 0.41 | 0.41 | 93 | 1009.3 |
| 20260905200535 | 50 | 0 | 0.0 | 1.7 | 0.00 | 0.41 | 0.41 | 92 | 1009.2 |
| 20260905200055 | 50 | 0 | 0.0 | 1.7 | 0.00 | 0.41 | 0.41 | 92 | 1009.3 |
| 20260905195531 | 50 | 320 | 0.0 | 4.3 | 0.00 | 0.41 | 0.41 | 92 | 1009.1 |
| 20260905195031 | 50 | 0 | 0.0 | 4.3 | 0.00 | 0.41 | 0.41 | 92 | 1009.1 |
| 20260905194553 | 50 | 335 | 1.7 | 4.3 | 0.00 | 0.41 | 0.41 | 92 | 1009.0 |
| 20260905194034 | 51 | 355 | 1.7 | 4.3 | 0.00 | 0.41 | 0.41 | 92 | 1009.0 |
| 20260905193531 | 51 | 0 | 0.0 | 2.6 | 0.00 | 0.41 | 0.41 | 93 | 1008.9 |
| 20260905193050 | 52 | 0 | 0.0 | 0.0 | 0.00 | 0.41 | 0.41 | 92 | 1008.8 |
| 20260905192533 | 52 | 0 | 0.0 | 0.0 | 0.00 | 0.41 | 0.41 | 92 | 1008.8 |
| 20260905192032 | 52 | 0 | 0.0 | 0.0 | 0.00 | 0.41 | 0.41 | 92 | 1008.7 |
| 20260905191554 | 52 | 0 | 0.0 | 0.0 | 0.00 | 0.41 | 0.41 | 92 | 1008.7 |
| 20260905191031 | 52 | 0 | 0.0 | 0.0 | 0.00 | 0.41 | 0.41 | 91 | 1008.4 |
| 20260905190541 | 52 | 0 | 0.0 | 0.0 | 0.00 | 0.41 | 0.41 | 92 | 1008.4 |
| 20260905190056 | 52 | 0 | 0.0 | 0.0 | 0.00 | 0.41 | 0.41 | 91 | 1008.3 |
| 20260905185533 | 52 | 0 | 0.0 | 0.0 | 0.00 | 0.41 | 0.41 | 91 | 1008.1 |
| 20260905185031 | 52 | 0 | 0.0 | 0.0 | 0.00 | 0.41 | 0.41 | 91 | 1008.2 |
| 20260905184552 | 52 | 0 | 0.0 | 0.0 | 0.00 | 0.41 | 0.41 | 90 | 1008.1 |
| 20260905184034 | 53 | 0 | 0.0 | 0.0 | 0.00 | 0.41 | 0.41 | 91 | 1008.1 |
| 20260905183532 | 53 | 0 | 0.0 | 0.0 | 0.00 | 0.41 | 0.41 | 90 | 1008.0 |
| 20260905183047 | 53 | 0 | 0.0 | 0.0 | 0.00 | 0.41 | 0.41 | 90 | 1007.9 |
| 20260905182531 | 53 | 0 | 0.0 | 0.0 | 0.00 | 0.41 | 0.41 | 90 | 1007.8 |
| 20260905182035 | 53 | 0 | 0.0 | 0.0 | 0.00 | 0.41 | 0.41 | 89 | 1007.7 |
| 20260905181545 | 53 | 0 | 0.0 | 0.0 | 0.00 | 0.41 | 0.41 | 89 | 1007.5 |
| 20260905181032 | 54 | 0 | 0.0 | 0.0 | 0.00 | 0.41 | 0.41 | 89 | 1007.5 |
| 20260905180531 | 54 | 0 | 0.0 | 0.0 | 0.00 | 0.41 | 0.41 | 88 | 1007.4 |
| 20260905180109 | 54 | 0 | 0.0 | 0.0 | 0.00 | 0.41 | 0.41 | 88 | 1007.3 |
| 20260905175532 | 55 | 0 | 0.0 | 0.0 | 0.00 | 0.41 | 0.41 | 88 | 1007.1 |
| 20260905175031 | 55 | 0 | 0.0 | 0.0 | 0.00 | 0.41 | 0.41 | 87 | 1007.1 |
| 20260905174547 | 56 | 0 | 0.0 | 0.9 | 0.00 | 0.41 | 0.41 | 87 | 1007.0 |
| 20260905174031 | 56 | 0 | 0.0 | 0.9 | 0.00 | 0.41 | 0.41 | 87 | 1007.0 |
| 20260905173532 | 56 | 299 | 0.0 | 0.9 | 0.00 | 0.41 | 0.41 | 84 | 1006.9 |
| 20260905173108 | 57 | 0 | 0.0 | 0.9 | 0.00 | 0.41 | 0.41 | 83 | 1006.8 |
| 20260905172531 | 58 | 0 | 0.0 | 0.9 | 0.00 | 0.41 | 0.41 | 81 | 1006.6 |
| 20260905172032 | 59 | 0 | 0.0 | 0.9 | 0.00 | 0.41 | 0.41 | 79 | 1006.5 |
| 20260905171556 | 60 | 0 | 0.0 | 0.0 | 0.00 | 0.41 | 0.41 | 77 | 1006.3 |
| 20260905171031 | 61 | 0 | 0.0 | 0.0 | 0.00 | 0.41 | 0.41 | 76 | 1006.3 |
| 20260905170531 | 62 | 0 | 0.0 | 0.9 | 0.00 | 0.41 | 0.41 | 73 | 1006.1 |
| 20260905170049 | 63 | 0 | 0.0 | 2.6 | 0.00 | 0.41 | 0.41 | 72 | 1006.0 |
| 20260905165535 | 63 | 282 | 0.9 | 2.6 | 0.00 | 0.41 | 0.41 | 71 | 1005.9 |
| 20260905165033 | 63 | 272 | 0.0 | 0.0 | 0.00 | 0.41 | 0.41 | 71 | 1005.8 |
| 20260905164545 | 63 | 0 | 0.0 | 0.0 | 0.00 | 0.41 | 0.41 | 73 | 1005.7 |
| 20260905164034 | 64 | 0 | 0.0 | 0.9 | 0.00 | 0.41 | 0.41 | 71 | 1005.7 |
| 20260905163531 | 64 | 0 | 0.0 | 2.6 | 0.00 | 0.41 | 0.41 | 67 | 1005.5 |
| 20260905163054 | 63 | 0 | 0.0 | 2.6 | 0.00 | 0.41 | 0.41 | 68 | 1005.5 |
| 20260905162532 | 63 | 334 | 1.7 | 2.6 | 0.00 | 0.41 | 0.41 | 69 | 1005.5 |
| 20260905162030 | 64 | 0 | 0.9 | 2.6 | 0.00 | 0.41 | 0.41 | 69 | 1005.4 |
| 20260905161548 | 63 | 278 | 0.0 | 3.5 | 0.00 | 0.41 | 0.41 | 69 | 1005.3 |
| 20260905161032 | 63 | 0 | 0.0 | 3.5 | 0.00 | 0.41 | 0.41 | 71 | 1005.3 |
| 20260905160532 | 63 | 299 | 0.9 | 4.3 | 0.00 | 0.41 | 0.41 | 72 | 1005.2 |
| 20260905160055 | 62 | 287 | 2.6 | 4.3 | 0.00 | 0.41 | 0.41 | 71 | 1005.2 |
| 20260905155536 | 62 | 290 | 2.6 | 4.3 | 0.00 | 0.41 | 0.41 | 71 | 1005.0 |
| 20260905155031 | 63 | 290 | 1.7 | 3.5 | 0.00 | 0.41 | 0.41 | 72 | 1004.9 |
| 20260905154550 | 63 | 290 | 0.0 | 2.6 | 0.00 | 0.41 | 0.41 | 75 | 1004.8 |
| 20260905154033 | 62 | 72 | 0.9 | 2.6 | 0.00 | 0.41 | 0.41 | 73 | 1004.8 |
| 20260905153532 | 63 | 231 | 0.9 | 2.6 | 0.00 | 0.41 | 0.41 | 73 | 1004.8 |
| 20260905153053 | 63 | 297 | 0.9 | 4.3 | 0.00 | 0.41 | 0.41 | 74 | 1004.7 |
| 20260905152531 | 62 | 217 | 1.7 | 4.3 | 0.00 | 0.41 | 0.41 | 74 | 1004.6 |
| 20260905152031 | 62 | 264 | 1.7 | 4.3 | 0.00 | 0.41 | 0.41 | 75 | 1004.6 |
| 20260905151550 | 62 | 302 | 1.7 | 4.3 | 0.00 | 0.41 | 0.41 | 74 | 1004.5 |
| 20260905151033 | 63 | 310 | 1.7 | 4.3 | 0.00 | 0.41 | 0.41 | 76 | 1004.4 |
| 20260905150532 | 63 | 278 | 1.7 | 5.2 | 0.00 | 0.41 | 0.41 | 76 | 1004.3 |
| 20260905150055 | 63 | 319 | 0.9 | 5.2 | 0.00 | 0.41 | 0.41 | 77 | 1004.2 |
| 20260905145537 | 62 | 0 | 0.9 | 3.5 | 0.00 | 0.41 | 0.41 | 79 | 1004.1 |
| 20260905145031 | 62 | 302 | 1.7 | 3.5 | 0.00 | 0.41 | 0.41 | 79 | 1004.0 |
| 20260905144555 | 61 | 296 | 1.7 | 4.3 | 0.00 | 0.41 | 0.41 | 79 | 1003.9 |
| 20260905144031 | 61 | 289 | 2.6 | 4.3 | 0.00 | 0.41 | 0.41 | 78 | 1003.8 |
| 20260905143532 | 61 | 311 | 1.7 | 3.5 | 0.00 | 0.41 | 0.41 | 81 | 1003.9 |
| 20260905143052 | 61 | 343 | 1.7 | 5.2 | 0.00 | 0.41 | 0.41 | 84 | 1003.8 |
| 20260905142535 | 60 | 323 | 2.6 | 6.1 | 0.00 | 0.41 | 0.41 | 82 | 1003.8 |
| 20260905142032 | 60 | 326 | 2.6 | 6.1 | 0.00 | 0.41 | 0.41 | 82 | 1003.8 |
| 20260905141548 | 61 | 334 | 2.6 | 4.3 | 0.00 | 0.41 | 0.41 | 84 | 1003.7 |
| 20260905141034 | 61 | 316 | 2.6 | 3.5 | 0.00 | 0.41 | 0.41 | 84 | 1003.5 |
| 20260905140531 | 60 | 23 | 1.7 | 3.5 | 0.00 | 0.41 | 0.41 | 84 | 1003.6 |
| 20260905135531 | 59 | 314 | 0.0 | 2.6 | 0.03 | 0.41 | 0.41 | 87 | 1003.6 |
| 20260905135034 | 58 | 278 | 0.9 | 2.6 | 0.05 | 0.41 | 0.41 | 88 | 1003.5 |
| 20260905134600 | 58 | 334 | 0.9 | 2.6 | 0.07 | 0.41 | 0.41 | 90 | 1003.7 |
| 20260905134033 | 57 | 297 | 0.9 | 2.6 | 0.10 | 0.41 | 0.41 | 91 | 1003.6 |
| 20260905133530 | 56 | 285 | 1.7 | 2.6 | 0.10 | 0.41 | 0.41 | 92 | 1003.5 |
| 20260905133049 | 56 | 306 | 0.0 | 1.7 | 0.10 | 0.41 | 0.41 | 93 | 1003.5 |
| 20260905132531 | 54 | 0 | 0.0 | 0.0 | 0.10 | 0.41 | 0.41 | 93 | 1003.5 |
| 20260905132031 | 54 | 0 | 0.0 | 0.0 | 0.10 | 0.41 | 0.41 | 93 | 1003.5 |
| 20260905131546 | 53 | 0 | 0.0 | 1.7 | 0.09 | 0.40 | 0.40 | 93 | 1003.6 |
| 20260905131033 | 53 | 0 | 0.0 | 2.6 | 0.09 | 0.40 | 0.40 | 92 | 1003.5 |
| 20260905130532 | 53 | 351 | 1.7 | 4.3 | 0.09 | 0.40 | 0.40 | 92 | 1003.6 |
| 20260905130050 | 53 | 345 | 1.7 | 6.1 | 0.08 | 0.40 | 0.40 | 92 | 1003.5 |
| 20260905125531 | 53 | 335 | 2.6 | 7.0 | 0.06 | 0.37 | 0.37 | 91 | 1003.4 |
| 20260905125031 | 53 | 351 | 2.6 | 7.0 | 0.04 | 0.36 | 0.36 | 90 | 1003.3 |
| 20260905124553 | 54 | 314 | 4.3 | 7.0 | 0.02 | 0.33 | 0.33 | 89 | 1003.3 |
| 20260905124034 | 55 | 347 | 3.5 | 7.0 | 0.00 | 0.31 | 0.31 | 88 | 1003.2 |
| 20260905123532 | 56 | 15 | 2.6 | 7.0 | 0.00 | 0.31 | 0.31 | 87 | 1003.2 |
| 20260905123046 | 57 | 274 | 2.6 | 6.1 | 0.00 | 0.31 | 0.31 | 86 | 1003.1 |
| 20260905122531 | 57 | 323 | 0.9 | 2.6 | 0.00 | 0.31 | 0.31 | 86 | 1003.0 |
| 20260905122031 | 57 | 305 | 0.0 | 2.6 | 0.00 | 0.31 | 0.31 | 85 | 1002.9 |
| 20260905121558 | 57 | 285 | 0.9 | 2.6 | 0.00 | 0.31 | 0.31 | 85 | 1002.8 |
| 20260905121031 | 57 | 263 | 0.9 | 2.6 | 0.00 | 0.31 | 0.31 | 86 | 1002.8 |
| 20260905120531 | 58 | 283 | 0.9 | 2.6 | 0.00 | 0.31 | 0.31 | 85 | 1002.7 |
| 20260905120107 | 58 | 0 | 0.0 | 0.9 | 0.00 | 0.31 | 0.31 | 85 | 1002.6 |
| 20260905115532 | 57 | 0 | 0.0 | 1.7 | 0.00 | 0.31 | 0.31 | 85 | 1002.6 |
| 20260905115032 | 58 | 0 | 0.0 | 1.7 | 0.00 | 0.31 | 0.31 | 84 | 1002.5 |
| 20260905114559 | 58 | 218 | 0.0 | 1.7 | 0.00 | 0.31 | 0.31 | 84 | 1002.5 |
| 20260905114031 | 57 | 285 | 0.9 | 1.7 | 0.00 | 0.31 | 0.31 | 83 | 1002.5 |
| 20260905113535 | 58 | 0 | 0.0 | 1.7 | 0.00 | 0.31 | 0.31 | 83 | 1002.4 |
| 20260905113058 | 58 | 0 | 0.0 | 0.0 | 0.00 | 0.31 | 0.31 | 84 | 1002.3 |
| 20260905112531 | 57 | 0 | 0.0 | 0.9 | 0.00 | 0.31 | 0.31 | 84 | 1002.2 |
| 20260905112032 | 58 | 0 | 0.0 | 0.9 | 0.00 | 0.31 | 0.31 | 86 | 1002.1 |
| 20260905111651 | 57 | 113 | 0.0 | 1.7 | 0.00 | 0.31 | 0.31 | 86 | 1002.1 |
| 20260905111031 | 56 | 0 | 0.0 | 1.7 | 0.00 | 0.31 | 0.31 | 87 | 1002.0 |
| 20260905110530 | 56 | 0 | 0.0 | 3.5 | 0.00 | 0.31 | 0.31 | 87 | 1002.0 |
| 20260905110055 | 56 | 0 | 0.9 | 3.5 | 0.00 | 0.31 | 0.31 | 88 | 1001.9 |
| 20260905105532 | 57 | 147 | 0.0 | 3.5 | 0.00 | 0.31 | 0.31 | 88 | 1001.9 |
| 20260905105030 | 57 | 127 | 0.0 | 4.3 | 0.00 | 0.31 | 0.31 | 87 | 1001.9 |
| 20260905104555 | 57 | 118 | 0.0 | 4.3 | 0.00 | 0.31 | 0.31 | 88 | 1001.8 |
| 20260905104032 | 57 | 0 | 0.9 | 3.5 | 0.00 | 0.31 | 0.31 | 89 | 1001.7 |
| 20260905103533 | 58 | 89 | 0.0 | 3.5 | 0.00 | 0.31 | 0.31 | 90 | 1001.6 |
| 20260905103102 | 58 | 212 | 0.9 | 2.6 | 0.00 | 0.31 | 0.31 | 92 | 1001.6 |
| 20260905102530 | 57 | 0 | 0.0 | 2.6 | 0.00 | 0.31 | 0.31 | 93 | 1001.5 |
| 20260905102031 | 56 | 127 | 0.9 | 2.6 | 0.00 | 0.31 | 0.31 | 92 | 1001.5 |
| 20260905101552 | 56 | 165 | 0.9 | 2.6 | 0.00 | 0.31 | 0.31 | 94 | 1001.5 |
| 20260905101031 | 55 | 144 | 0.9 | 2.6 | 0.00 | 0.31 | 0.31 | 94 | 1001.4 |
| 20260905100531 | 54 | 115 | 0.0 | 2.6 | 0.00 | 0.31 | 0.31 | 94 | 1001.4 |
| 20260905100059 | 54 | 0 | 0.0 | 2.6 | 0.00 | 0.31 | 0.31 | 94 | 1001.4 |
| 20260905095530 | 54 | 110 | 0.9 | 2.6 | 0.01 | 0.31 | 0.31 | 94 | 1001.4 |
| 20260905095033 | 54 | 107 | 0.0 | 2.6 | 0.01 | 0.31 | 0.31 | 94 | 1001.3 |
| 20260905094554 | 54 | 98 | 0.9 | 2.6 | 0.01 | 0.31 | 0.31 | 94 | 1001.5 |
| 20260905094032 | 54 | 110 | 0.0 | 0.9 | 0.02 | 0.31 | 0.31 | 95 | 1001.4 |
| 20260905093530 | 54 | 0 | 0.0 | 0.9 | 0.02 | 0.31 | 0.31 | 95 | 1001.3 |
| 20260905093106 | 53 | 0 | 0.0 | 0.9 | 0.02 | 0.31 | 0.31 | 95 | 1001.4 |
| 20260905092533 | 53 | 0 | 0.0 | 1.7 | 0.02 | 0.31 | 0.31 | 95 | 1001.3 |
| 20260905092031 | 53 | 0 | 0.0 | 1.7 | 0.03 | 0.31 | 0.31 | 95 | 1001.3 |
| 20260905091551 | 53 | 0 | 0.0 | 0.0 | 0.04 | 0.31 | 0.31 | 96 | 1001.2 |
| 20260905091030 | 53 | 0 | 0.0 | 0.0 | 0.04 | 0.30 | 0.30 | 96 | 1001.2 |
| 20260905090535 | 53 | 0 | 0.0 | 0.0 | 0.05 | 0.30 | 0.30 | 96 | 1001.1 |
| 20260905090054 | 52 | 0 | 0.0 | 0.0 | 0.07 | 0.30 | 0.30 | 96 | 1001.1 |
| 20260905085531 | 52 | 0 | 0.0 | 0.0 | 0.07 | 0.29 | 0.29 | 96 | 1001.0 |
| 20260905085034 | 52 | 0 | 0.0 | 0.0 | 0.07 | 0.29 | 0.29 | 96 | 1000.9 |
| 20260905084557 | 52 | 0 | 0.0 | 0.0 | 0.07 | 0.29 | 0.29 | 96 | 1000.9 |
| 20260905084031 | 52 | 0 | 0.0 | 0.0 | 0.07 | 0.29 | 0.29 | 96 | 1001.0 |
| 20260905083534 | 52 | 0 | 0.0 | 0.9 | 0.10 | 0.29 | 0.29 | 96 | 1000.8 |
| 20260905083048 | 52 | 0 | 0.0 | 0.9 | 0.11 | 0.29 | 0.29 | 96 | 1000.8 |
| 20260905082531 | 51 | 0 | 0.0 | 0.0 | 0.11 | 0.29 | 0.29 | 96 | 1000.8 |
| 20260905082031 | 51 | 0 | 0.0 | 0.9 | 0.10 | 0.28 | 0.28 | 96 | 1000.8 |
| 20260905081547 | 51 | 0 | 0.0 | 0.9 | 0.09 | 0.26 | 0.26 | 96 | 1000.9 |
| 20260905081033 | 51 | 0 | 0.0 | 0.9 | 0.08 | 0.25 | 0.25 | 96 | 1000.8 |
| 20260905080530 | 51 | 0 | 0.0 | 0.0 | 0.07 | 0.24 | 0.24 | 96 | 1000.8 |
| 20260905080045 | 51 | 0 | 0.0 | 0.0 | 0.07 | 0.23 | 0.23 | 96 | 1000.8 |
| 20260905075533 | 50 | 0 | 0.0 | 0.0 | 0.07 | 0.22 | 0.22 | 96 | 1000.6 |
| 20260905075033 | 50 | 0 | 0.0 | 0.0 | 0.07 | 0.22 | 0.22 | 96 | 1000.7 |
| 20260905074553 | 50 | 0 | 0.0 | 0.0 | 0.07 | 0.22 | 0.22 | 96 | 1000.6 |
| 20260905074030 | 50 | 0 | 0.0 | 1.7 | 0.05 | 0.20 | 0.20 | 96 | 1000.5 |
| 20260905073531 | 50 | 0 | 0.0 | 1.7 | 0.04 | 0.18 | 0.18 | 96 | 1000.5 |
| 20260905073048 | 50 | 311 | 0.0 | 1.7 | 0.04 | 0.18 | 0.18 | 96 | 1000.5 |
| 20260905072531 | 50 | 0 | 0.0 | 0.0 | 0.07 | 0.18 | 0.18 | 96 | 1000.5 |
| 20260905072030 | 50 | 0 | 0.0 | 0.0 | 0.07 | 0.17 | 0.17 | 96 | 1000.4 |
| 20260905071549 | 50 | 0 | 0.0 | 0.0 | 0.07 | 0.17 | 0.17 | 96 | 1000.4 |
| 20260905071030 | 50 | 0 | 0.0 | 0.0 | 0.07 | 0.17 | 0.17 | 96 | 1000.2 |
| 20260905070534 | 49 | 0 | 0.0 | 0.0 | 0.06 | 0.16 | 0.16 | 96 | 1000.1 |
| 20260905070053 | 49 | 0 | 0.0 | 0.0 | 0.07 | 0.16 | 0.16 | 96 | 1000.2 |
| 20260905065532 | 49 | 0 | 0.0 | 0.0 | 0.07 | 0.15 | 0.15 | 96 | 1000.2 |
| 20260905065031 | 49 | 0 | 0.0 | 0.0 | 0.07 | 0.14 | 0.14 | 96 | 1000.2 |
| 20260905064558 | 49 | 0 | 0.0 | 0.0 | 0.07 | 0.14 | 0.14 | 96 | 1000.1 |
| 20260905064031 | 49 | 0 | 0.0 | 0.9 | 0.07 | 0.14 | 0.14 | 96 | 999.9 |
| 20260905063532 | 49 | 0 | 0.0 | 2.6 | 0.07 | 0.14 | 0.14 | 96 | 999.8 |
| 20260905063048 | 49 | 92 | 0.9 | 2.6 | 0.07 | 0.12 | 0.12 | 96 | 999.9 |
| 20260905062532 | 49 | 134 | 0.0 | 1.7 | 0.07 | 0.11 | 0.11 | 95 | 999.9 |
| 20260905062032 | 48 | 0 | 0.0 | 1.7 | 0.07 | 0.10 | 0.10 | 96 | 1000.0 |
| 20260905061547 | 48 | 0 | 0.0 | 0.9 | 0.07 | 0.10 | 0.10 | 96 | 1000.0 |
| 20260905061033 | 48 | 0 | 0.0 | 0.9 | 0.07 | 0.10 | 0.10 | 96 | 999.7 |
| 20260905060532 | 48 | 0 | 0.0 | 0.9 | 0.07 | 0.10 | 0.10 | 96 | 999.8 |
| 20260905060056 | 48 | 0 | 0.0 | 0.9 | 0.07 | 0.09 | 0.09 | 96 | 999.8 |
| 20260905055533 | 48 | 0 | 0.0 | 0.9 | 0.07 | 0.08 | 0.08 | 96 | 999.7 |
| 20260905055032 | 48 | 285 | 0.0 | 1.7 | 0.06 | 0.07 | 0.07 | 96 | 999.6 |
| 20260905054553 | 48 | 0 | 0.0 | 1.7 | 0.06 | 0.07 | 0.07 | 96 | 999.5 |
| 20260905054037 | 48 | 250 | 0.9 | 1.7 | 0.06 | 0.07 | 0.07 | 96 | 999.5 |
| 20260905053533 | 48 | 0 | 0.0 | 1.7 | 0.04 | 0.06 | 0.06 | 96 | 999.3 |
| 20260905053048 | 48 | 0 | 0.9 | 1.7 | 0.03 | 0.04 | 0.04 | 95 | 999.4 |
| 20260905052532 | 48 | 0 | 0.0 | 3.5 | 0.02 | 0.03 | 0.03 | 95 | 999.5 |
| 20260905052033 | 48 | 252 | 1.7 | 3.5 | 0.01 | 0.02 | 0.02 | 95 | 999.5 |
| 20260905051548 | 48 | 266 | 0.0 | 2.6 | 0.02 | 0.02 | 0.02 | 96 | 999.4 |
| 20260905051036 | 48 | 0 | 0.0 | 3.5 | 0.02 | 0.02 | 0.02 | 96 | 999.3 |
| 20260905050532 | 48 | 0 | 0.0 | 4.3 | 0.02 | 0.02 | 0.02 | 96 | 999.3 |
| 20260905050058 | 48 | 14 | 2.6 | 4.3 | 0.01 | 0.01 | 0.01 | 95 | 999.3 |
| 20260905045533 | 48 | 340 | 1.7 | 3.5 | 0.01 | 0.01 | 0.01 | 95 | 999.3 |
| 20260905045032 | 48 | 329 | 1.7 | 2.6 | 0.01 | 0.01 | 0.01 | 95 | 999.4 |
| 20260905044550 | 48 | 335 | 0.0 | 1.7 | 0.01 | 0.01 | 0.01 | 95 | 999.3 |
| 20260905044034 | 48 | 0 | 0.0 | 0.0 | 0.01 | 0.01 | 0.01 | 95 | 999.2 |
| 20260905043533 | 47 | 0 | 0.0 | 1.7 | 0.01 | 0.01 | 0.01 | 95 | 999.3 |
| 20260905043049 | 47 | 0 | 0.0 | 1.7 | 0.01 | 0.01 | 0.01 | 95 | 999.3 |
| 20260905042532 | 48 | 0 | 0.0 | 0.0 | 0.01 | 0.01 | 0.01 | 95 | 999.2 |
| 20260905042032 | 48 | 0 | 0.0 | 0.0 | 0.00 | 0.00 | 0.00 | 95 | 999.1 |
| 20260905041549 | 48 | 0 | 0.0 | 0.0 | 0.00 | 0.00 | 0.00 | 95 | 999.1 |
| 20260905041032 | 48 | 0 | 0.0 | 0.0 | 0.00 | 0.00 | 0.00 | 95 | 999.1 |
| 20260905040532 | 48 | 0 | 0.0 | 0.0 | 0.00 | 0.00 | 0.00 | 95 | 999.1 |
| 20260905040048 | 47 | 0 | 0.0 | 0.0 | 0.00 | 0.00 | 0.00 | 95 | 999.1 |
| 20260905035533 | 47 | 0 | 0.0 | 0.0 | 0.00 | 0.00 | 0.00 | 95 | 999.1 |
| 20260905035032 | 47 | 0 | 0.0 | 0.0 | 0.00 | 0.00 | 0.00 | 95 | 999.0 |
| 20260905034550 | 47 | 0 | 0.0 | 0.0 | 0.00 | 0.00 | 0.00 | 95 | 999.2 |
| 20260905034034 | 47 | 0 | 0.0 | 0.0 | 0.00 | 0.00 | 0.00 | 95 | 999.2 |
| 20260905033533 | 47 | 0 | 0.0 | 0.0 | 0.00 | 0.00 | 0.00 | 95 | 999.2 |
| 20260905033058 | 47 | 0 | 0.0 | 0.0 | 0.00 | 0.00 | 0.00 | 95 | 999.1 |
| 20260905032533 | 47 | 0 | 0.0 | 0.0 | 0.00 | 0.00 | 0.00 | 95 | 999.1 |
| 20260905032032 | 47 | 0 | 0.0 | 0.0 | 0.00 | 0.00 | 0.00 | 95 | 999.0 |
| 20260905031556 | 47 | 0 | 0.0 | 0.0 | 0.00 | 0.00 | 0.00 | 95 | 999.0 |
| 20260905031034 | 47 | 0 | 0.0 | 0.0 | 0.00 | 0.00 | 0.00 | 95 | 999.1 |
| 20260905030534 | 47 | 0 | 0.0 | 0.0 | 0.00 | 0.00 | 0.00 | 95 | 999.1 |
| 20260905030119 | 47 | 0 | 0.0 | 0.0 | 0.00 | 0.00 | 0.00 | 95 | 999.1 |
| 20260905025534 | 47 | 0 | 0.0 | 0.0 | 0.00 | 0.02 | 0.00 | 95 | 999.1 |
| 20260905025034 | 47 | 0 | 0.0 | 0.0 | 0.00 | 0.02 | 0.00 | 95 | 999.0 |
| 20260905024604 | 47 | 0 | 0.0 | 0.0 | 0.00 | 0.02 | 0.00 | 95 | 999.0 |
| 20260905024035 | 47 | 0 | 0.0 | 0.0 | 0.00 | 0.02 | 0.00 | 95 | 999.0 |
| 20260905023535 | 47 | 0 | 0.0 | 0.0 | 0.00 | 0.02 | 0.00 | 95 | 998.9 |
| 20260905023047 | 47 | 0 | 0.0 | 0.0 | 0.00 | 0.02 | 0.00 | 95 | 998.8 |
| 20260905022534 | 46 | 0 | 0.0 | 0.0 | 0.00 | 0.02 | 0.00 | 95 | 998.9 |
| 20260905022034 | 46 | 0 | 0.0 | 0.0 | 0.00 | 0.02 | 0.00 | 95 | 998.8 |
| 20260905021556 | 46 | 0 | 0.0 | 0.9 | 0.00 | 0.02 | 0.00 | 95 | 998.8 |
| 20260905021034 | 46 | 0 | 0.0 | 0.9 | 0.00 | 0.02 | 0.00 | 95 | 998.8 |
| 20260905020536 | 46 | 0 | 0.0 | 0.9 | 0.00 | 0.02 | 0.00 | 95 | 998.7 |
| 20260905020051 | 46 | 0 | 0.0 | 1.7 | 0.00 | 0.02 | 0.00 | 95 | 998.8 |
| 20260905015535 | 46 | 0 | 0.0 | 1.7 | 0.00 | 0.06 | 0.00 | 95 | 998.7 |
| 20260905015038 | 46 | 108 | 0.9 | 1.7 | 0.00 | 0.06 | 0.00 | 95 | 998.6 |
| 20260905014600 | 46 | 48 | 0.0 | 0.9 | 0.00 | 0.06 | 0.00 | 95 | 998.8 |
| 20260905014035 | 46 | 14 | 0.0 | 0.9 | 0.00 | 0.06 | 0.00 | 95 | 998.7 |
| 20260905013535 | 46 | 0 | 0.0 | 0.0 | 0.00 | 0.06 | 0.00 | 95 | 998.6 |
| 20260905013047 | 46 | 0 | 0.0 | 0.0 | 0.00 | 0.06 | 0.00 | 95 | 998.7 |
| 20260905012538 | 46 | 0 | 0.0 | 0.0 | 0.00 | 0.06 | 0.00 | 95 | 998.6 |
| 20260905012035 | 46 | 0 | 0.0 | 0.0 | 0.00 | 0.06 | 0.00 | 95 | 998.7 |
| 20260905011556 | 46 | 0 | 0.0 | 0.0 | 0.00 | 0.06 | 0.00 | 95 | 998.6 |
| 20260905011035 | 47 | 0 | 0.0 | 0.0 | 0.00 | 0.06 | 0.00 | 95 | 998.6 |
| 20260905010538 | 46 | 0 | 0.0 | 0.0 | 0.00 | 0.06 | 0.00 | 95 | 998.5 |
| 20260905010050 | 46 | 0 | 0.0 | 0.9 | 0.00 | 0.06 | 0.00 | 95 | 998.6 |
| 20260905005535 | 46 | 0 | 0.0 | 0.9 | 0.00 | 0.08 | 0.00 | 95 | 998.5 |
| 20260905005034 | 46 | 0 | 0.0 | 1.7 | 0.00 | 0.08 | 0.00 | 95 | 998.5 |
| 20260905004550 | 47 | 0 | 0.0 | 1.7 | 0.00 | 0.08 | 0.00 | 95 | 998.5 |
| 20260905004034 | 47 | 353 | 0.0 | 0.0 | 0.00 | 0.08 | 0.00 | 95 | 998.4 |
| 20260905003535 | 46 | 0 | 0.0 | 0.0 | 0.00 | 0.08 | 0.00 | 95 | 998.4 |
| 20260905003044 | 46 | 0 | 0.0 | 0.9 | 0.00 | 0.08 | 0.00 | 95 | 998.6 |
| 20260905002534 | 46 | 0 | 0.0 | 1.7 | 0.00 | 0.08 | 0.00 | 94 | 998.5 |
| 20260905002035 | 46 | 289 | 0.0 | 1.7 | 0.00 | 0.08 | 0.00 | 95 | 998.4 |
| 20260905001552 | 47 | 300 | 0.0 | 1.7 | 0.00 | 0.08 | 0.00 | 95 | 998.3 |
| 20260905001035 | 47 | 0 | 0.0 | 0.0 | 0.00 | 0.08 | 0.00 | 95 | 998.3 |
| 20260905000538 | 46 | 0 | 0.0 | 0.0 | 0.00 | 0.08 | 0.00 | 95 | 998.5 |
| 20260905000105 | 47 | 0 | 0.0 | 0.0 | 0.00 | 0.08 | 0.00 | 95 | 998.4 |
| 20260904235531 | 47 | 0 | 0.0 | 0.9 | 0.00 | 0.08 | 0.00 | 95 | 998.3 |
| 20260904235032 | 46 | 0 | 0.0 | 0.9 | 0.00 | 0.08 | 0.00 | 94 | 998.4 |
| 20260904234606 | 46 | 110 | 0.0 | 0.9 | 0.00 | 0.08 | 0.00 | 94 | 998.3 |
| 20260904234031 | 46 | 0 | 0.0 | 0.0 | 0.00 | 0.08 | 0.00 | 94 | 998.2 |
| 20260904233534 | 46 | 0 | 0.0 | 0.0 | 0.00 | 0.08 | 0.00 | 94 | 998.2 |
| 20260904233056 | 46 | 0 | 0.0 | 0.9 | 0.00 | 0.08 | 0.00 | 94 | 998.2 |
| 20260904232536 | 47 | 0 | 0.0 | 2.6 | 0.00 | 0.08 | 0.00 | 94 | 998.1 |
| 20260904232035 | 47 | 356 | 0.9 | 2.6 | 0.00 | 0.08 | 0.00 | 94 | 998.2 |
| 20260904231553 | 47 | 352 | 0.9 | 1.7 | 0.00 | 0.08 | 0.00 | 94 | 998.1 |
| 20260904231035 | 47 | 355 | 0.0 | 1.7 | 0.00 | 0.08 | 0.00 | 94 | 998.2 |
| 20260904230535 | 47 | 352 | 0.0 | 1.7 | 0.00 | 0.08 | 0.00 | 94 | 998.2 |
| 20260904230048 | 47 | 0 | 0.0 | 0.0 | 0.00 | 0.08 | 0.00 | 94 | 998.3 |
| 20260904225531 | 47 | 0 | 0.0 | 0.0 | 0.00 | 0.08 | 0.00 | 94 | 998.3 |
| 20260904225034 | 47 | 0 | 0.0 | 0.0 | 0.00 | 0.08 | 0.00 | 94 | 998.3 |
| 20260904224546 | 47 | 0 | 0.0 | 0.0 | 0.00 | 0.08 | 0.00 | 93 | 998.3 |
| 20260904224035 | 47 | 0 | 0.0 | 0.0 | 0.00 | 0.08 | 0.00 | 93 | 998.2 |
| 20260904223536 | 47 | 0 | 0.0 | 0.0 | 0.00 | 0.08 | 0.00 | 93 | 998.2 |
| 20260904223056 | 47 | 0 | 0.0 | 0.0 | 0.00 | 0.08 | 0.00 | 93 | 998.1 |
| 20260904222533 | 47 | 0 | 0.0 | 0.0 | 0.00 | 0.08 | 0.00 | 93 | 998.2 |
| 20260904222032 | 47 | 0 | 0.0 | 0.0 | 0.00 | 0.08 | 0.00 | 93 | 998.3 |
| 20260904221600 | 47 | 0 | 0.0 | 0.0 | 0.00 | 0.08 | 0.00 | 93 | 998.2 |
| 20260904221033 | 47 | 0 | 0.0 | 0.0 | 0.00 | 0.08 | 0.00 | 93 | 998.3 |
| 20260904220532 | 48 | 0 | 0.0 | 0.0 | 0.00 | 0.08 | 0.00 | 93 | 998.3 |
| 20260904220111 | 48 | 0 | 0.0 | 0.0 | 0.00 | 0.08 | 0.00 | 92 | 998.2 |
| 20260904215532 | 48 | 0 | 0.0 | 0.0 | 0.00 | 0.08 | 0.08 | 92 | 998.2 |
| 20260904215031 | 48 | 0 | 0.0 | 0.0 | 0.00 | 0.08 | 0.08 | 92 | 998.1 |
| 20260904214553 | 48 | 0 | 0.0 | 0.0 | 0.00 | 0.08 | 0.08 | 92 | 998.1 |
| 20260904214032 | 48 | 0 | 0.0 | 0.0 | 0.00 | 0.08 | 0.08 | 92 | 998.0 |
| 20260904213532 | 49 | 0 | 0.0 | 0.0 | 0.00 | 0.08 | 0.08 | 92 | 998.1 |
| 20260904213054 | 49 | 0 | 0.0 | 0.0 | 0.00 | 0.08 | 0.08 | 92 | 998.0 |
| 20260904212532 | 49 | 0 | 0.0 | 0.0 | 0.00 | 0.08 | 0.08 | 92 | 998.0 |
| 20260904212032 | 49 | 0 | 0.0 | 0.0 | 0.00 | 0.08 | 0.08 | 91 | 998.1 |
| 20260904211555 | 49 | 0 | 0.0 | 0.0 | 0.00 | 0.08 | 0.08 | 91 | 998.1 |
| 20260904211032 | 49 | 0 | 0.0 | 0.0 | 0.00 | 0.08 | 0.08 | 91 | 998.0 |
| 20260904210532 | 49 | 0 | 0.0 | 0.0 | 0.00 | 0.08 | 0.08 | 91 | 997.8 |
| 20260904210100 | 49 | 0 | 0.0 | 0.0 | 0.00 | 0.08 | 0.08 | 90 | 997.9 |
| 20260904205533 | 50 | 0 | 0.0 | 0.0 | 0.00 | 0.08 | 0.08 | 90 | 997.9 |